﻿_id,日時,平均風速(m/s),平均風向,最大瞬間風速(m/s),最大風速時風向,気温(℃),湿度(%),10分間移動積算雨量(mm),1時間移動積算雨量(mm),日雨量(mm),累計雨量(mm)
1,2023-03-13T00:00:00,3.8,南南東,9,南東,13.8,81.8,0.5,1,1,1
2,2023-03-13T00:01:00,3.9,南南東,9,南東,13.7,82.9,0.5,1,0,1
3,2023-03-13T00:02:00,4,南南東,9,南東,13.8,83.6,0.5,1,0,1
4,2023-03-13T00:03:00,4.2,南南東,9.3,南東,13.8,83.6,0.5,1,0,1
5,2023-03-13T00:04:00,4.3,南南東,10.6,南東,13.9,83.3,0.5,1,0,1
6,2023-03-13T00:05:00,4.2,南南東,10.6,南東,13.9,83.1,0.5,1,0,1
7,2023-03-13T00:06:00,4.1,南南東,10.6,南東,13.9,82.9,0.5,1,0,1
8,2023-03-13T00:07:00,3.9,南南東,10.6,南東,13.8,83.3,0.5,1,0,1
9,2023-03-13T00:08:00,4.1,南南東,10.6,南東,14,83.6,0,1,0,1
10,2023-03-13T00:09:00,4.6,南南東,10.6,南東,14.1,82.9,0,1,0,1
11,2023-03-13T00:10:00,4.9,南南東,10.6,南東,14.1,82,0,1,0,1
12,2023-03-13T00:11:00,5.2,南南東,10.6,南東,14.2,81.6,0,1,0,1
13,2023-03-13T00:12:00,5.4,南南東,10.6,南東,14.1,81.2,0,1,0,1
14,2023-03-13T00:13:00,5.2,南南東,10.6,南東,14.1,81.2,0,1,0,1
15,2023-03-13T00:14:00,5,南南東,10.6,南南東,13.9,81.6,0,1,0,1
16,2023-03-13T00:15:00,5.1,南南東,10.6,南南東,13.9,82.3,0,1,0,1
17,2023-03-13T00:16:00,5.1,南南東,10.6,南南東,13.9,82.9,0,1,0,1
18,2023-03-13T00:17:00,5.2,南南東,10.6,南南東,13.9,83.3,0,1,0,1
19,2023-03-13T00:18:00,4.8,南東,9.6,東南東,14,83.2,0,1,0,1
20,2023-03-13T00:19:00,4.8,南東,9.6,東南東,14.2,83,0,1,0,1
21,2023-03-13T00:20:00,4.8,南南東,9.6,東南東,14.2,81.8,0.5,1.5,0.5,1.5
22,2023-03-13T00:21:00,4.6,南東,9.6,東南東,14.1,81.7,0.5,1.5,0.5,1.5
23,2023-03-13T00:22:00,4.7,南南東,9.6,東南東,14,82.2,0.5,1.5,0.5,1.5
24,2023-03-13T00:23:00,4.7,南東,9.6,東南東,14.1,82.5,0.5,1.5,0.5,1.5
25,2023-03-13T00:24:00,4.8,南南東,9.6,東南東,14,82.5,0.5,1.5,0.5,1.5
26,2023-03-13T00:25:00,4.7,南南東,9.6,東南東,14.1,83.1,0.5,1.5,0.5,1.5
27,2023-03-13T00:26:00,4.6,南南東,9.6,東南東,14.2,83.2,0.5,1.5,0.5,1.5
28,2023-03-13T00:27:00,4.3,南南東,9.3,南東,14,82.8,0.5,1.5,0.5,1.5
29,2023-03-13T00:28:00,4.3,南南東,9.3,南東,13.9,83,0.5,1.5,0.5,1.5
30,2023-03-13T00:29:00,4.2,南南東,9,南南東,13.9,83.9,0.5,1.5,0.5,1.5
31,2023-03-13T00:30:00,4.3,南南東,10,南,14.1,84.5,0,1.5,0.5,1.5
32,2023-03-13T00:31:00,4.5,南南東,10,南,14.2,83.8,0,1.5,0.5,1.5
33,2023-03-13T00:32:00,4.6,南東,12.2,東,14.3,83.3,0,1.5,0.5,1.5
34,2023-03-13T00:33:00,5.1,南東,13.6,南東,14.4,82.6,0,1.5,0.5,1.5
35,2023-03-13T00:34:00,5.2,南東,13.6,南東,14.4,81.6,0,1.5,0.5,1.5
36,2023-03-13T00:35:00,5.5,南東,13.6,南東,14.4,81.4,0,1.5,0.5,1.5
37,2023-03-13T00:36:00,6.1,南南東,13.6,南東,14.5,81.5,0,1.5,0.5,1.5
38,2023-03-13T00:37:00,6.5,南東,13.6,南東,14.6,80.8,0,1.5,0.5,1.5
39,2023-03-13T00:38:00,7.1,南南東,13.9,南南東,14.7,80,0,1.5,0.5,1.5
40,2023-03-13T00:39:00,7.5,南南東,13.9,南南東,14.6,79.8,0,1.5,0.5,1.5
41,2023-03-13T00:40:00,7.4,南南東,13.9,南南東,14.7,79.7,0,1.5,0.5,1.5
42,2023-03-13T00:41:00,7.5,南南東,13.9,南南東,14.6,79.5,0,1.5,0.5,1.5
43,2023-03-13T00:42:00,7.2,南南東,13.9,南南東,14.5,79.6,0,1.5,0.5,1.5
44,2023-03-13T00:43:00,6.5,南南東,13.9,南南東,14.4,79.7,0,1.5,0.5,1.5
45,2023-03-13T00:44:00,6.3,南南東,13.9,南南東,14.5,80,0,1,0.5,1.5
46,2023-03-13T00:45:00,6,南南東,13.9,南南東,14.4,80.1,0,1,0.5,1.5
47,2023-03-13T00:46:00,6.1,南南東,13.9,南南東,14.6,80.5,0.5,1.5,1,2
48,2023-03-13T00:47:00,5.9,南南東,13.9,南南東,14.7,79.6,0.5,1.5,1,2
49,2023-03-13T00:48:00,5.5,南南東,13.8,南南東,14.6,79.1,0.5,1.5,1,2
50,2023-03-13T00:49:00,5.5,南南東,13.8,南南東,14.6,79.3,0.5,1.5,1,2
51,2023-03-13T00:50:00,5.8,南南東,13.8,南南東,14.7,79.4,0.5,1.5,1,2
52,2023-03-13T00:51:00,5.6,南南東,13.8,南南東,14.7,79,0.5,1.5,1,2
53,2023-03-13T00:52:00,5.6,南南東,13.8,南南東,14.7,78.6,0.5,1.5,1,2
54,2023-03-13T00:53:00,5.9,南南東,13.8,南南東,14.6,78.8,0.5,1.5,1,2
55,2023-03-13T00:54:00,6.2,南南東,13.8,南南東,14.6,79.2,0.5,1.5,1,2
56,2023-03-13T00:55:00,6.3,南南東,13.8,南南東,14.6,79.3,0.5,1.5,1,2
57,2023-03-13T00:56:00,5.9,南南東,13.1,南東,14.5,79.5,0,1.5,1,2
58,2023-03-13T00:57:00,5.6,南南東,13.1,南東,14.4,79.9,0.5,2,1.5,2.5
59,2023-03-13T00:58:00,5.5,南南東,13.1,南東,14.3,80.7,0.5,1.5,1.5,2.5
60,2023-03-13T00:59:00,5.3,南南東,11.5,南南東,14.2,81.4,0.5,1.5,1.5,2.5
61,2023-03-13T01:00:00,4.9,南南東,9.7,南南東,14.2,81.7,0.5,1.5,1.5,2.5
62,2023-03-13T01:01:00,4.9,南南東,9.7,南南東,14.2,82.1,0.5,1.5,1.5,2.5
63,2023-03-13T01:02:00,4.8,南南東,9.1,南南東,14.2,82.4,0.5,1.5,1.5,2.5
64,2023-03-13T01:03:00,4.6,南東,9.1,南南東,14.1,82.5,0.5,1.5,1.5,2.5
65,2023-03-13T01:04:00,4.5,南東,9.1,南南東,14.2,82.5,0.5,1.5,1.5,2.5
66,2023-03-13T01:05:00,4.4,南東,9.1,南南東,14.2,82.1,0.5,1.5,1.5,2.5
67,2023-03-13T01:06:00,4.1,南東,9.1,南南東,14.1,82.3,0.5,1.5,1.5,2.5
68,2023-03-13T01:07:00,4,南南東,9.1,南南東,14.2,82.9,0,1.5,1.5,2.5
69,2023-03-13T01:08:00,3.9,南南東,9.1,南南東,14.1,82.7,0,1.5,1.5,2.5
70,2023-03-13T01:09:00,3.7,南南東,7,南南東,14,83.3,0,1.5,1.5,2.5
71,2023-03-13T01:10:00,3.7,南南東,6.9,南東,14.1,83.8,0.5,2,2,3
72,2023-03-13T01:11:00,3.6,南南東,6.9,南東,14,83.7,0.5,2,2,3
73,2023-03-13T01:12:00,3.8,南南東,7.6,南東,14.1,84,0.5,2,2,3
74,2023-03-13T01:13:00,3.9,南南東,8.7,南南東,14.1,83.9,0.5,2,2,3
75,2023-03-13T01:14:00,4.2,南,10.8,南南東,14.2,83.8,1,2.5,2.5,3.5
76,2023-03-13T01:15:00,4.2,南,10.8,南南東,14.1,83.6,1,2.5,2.5,3.5
77,2023-03-13T01:16:00,4.5,南,10.8,南南東,14.1,83.8,1,2.5,2.5,3.5
78,2023-03-13T01:17:00,4.7,南,10.8,南南東,14.3,83.9,1,2.5,2.5,3.5
79,2023-03-13T01:18:00,4.8,南南東,10.8,南南東,14.1,83.6,1,2.5,2.5,3.5
80,2023-03-13T01:19:00,4.8,南南東,10.8,南南東,14.1,83.9,2,3.5,3.5,4.5
81,2023-03-13T01:20:00,4.8,南南東,10.8,南南東,13.9,83.9,1.5,3,3.5,4.5
82,2023-03-13T01:21:00,5,南南東,10.8,南南東,13.9,84.7,2,3.5,4,5
83,2023-03-13T01:22:00,4.8,南南東,10.8,南南東,13.9,85.8,2,3.5,4,5
84,2023-03-13T01:23:00,4.6,南南東,10.8,南南東,13.9,86.1,2,3.5,4,5
85,2023-03-13T01:24:00,4.5,南南東,10.1,南南東,14,86.2,1.5,3.5,4,5
86,2023-03-13T01:25:00,4.5,南南東,10.1,南南東,14,86.1,1.5,3.5,4,5
87,2023-03-13T01:26:00,4.6,南東,10.1,南南東,14.1,85.5,1.5,3.5,4,5
88,2023-03-13T01:27:00,4.6,南東,10.1,南南東,14.1,85.1,2,4,4.5,5.5
89,2023-03-13T01:28:00,4.6,南南東,10.1,南南東,14,84.7,2,4,4.5,5.5
90,2023-03-13T01:29:00,4.4,南南東,10.1,南南東,13.7,85.2,1,4,4.5,5.5
91,2023-03-13T01:30:00,4.3,南南東,10.1,南南東,13.7,86.6,1.5,4.5,5,6
92,2023-03-13T01:31:00,4.1,南南東,10.1,南南東,13.7,87.5,1,4.5,5,6
93,2023-03-13T01:32:00,4.5,南南東,10.1,南南東,13.9,88.4,1.5,5,5.5,6.5
94,2023-03-13T01:33:00,4.5,南南東,10.1,南南東,14,87.9,1.5,5,5.5,6.5
95,2023-03-13T01:34:00,4.2,南東,9.7,南東,13.8,86.7,2,5.5,6,7
96,2023-03-13T01:35:00,4.2,南南東,9.7,南東,13.6,87.1,2.5,6,6.5,7.5
97,2023-03-13T01:36:00,4,南南東,9.7,南東,13.7,88.3,3,6.5,7,8
98,2023-03-13T01:37:00,3.9,南南東,9.7,南東,13.8,88.7,3,7,7.5,8.5
99,2023-03-13T01:38:00,3.9,南南東,9.7,南東,13.8,88.3,3.5,7.5,8,9
100,2023-03-13T01:39:00,4,南東,9.7,南東,13.7,88,4,8,8.5,9.5
101,2023-03-13T01:40:00,4.1,南南東,9.7,南東,13.6,88.2,3.5,8,8.5,9.5
102,2023-03-13T01:41:00,3.7,南南東,9.7,南東,13.5,88.7,3.5,8,8.5,9.5
103,2023-03-13T01:42:00,3.1,南南東,7.3,南南東,13.5,89.4,3.5,8.5,9,10
104,2023-03-13T01:43:00,2.8,南南東,7.3,南南東,13.3,89.7,4,9,9.5,10.5
105,2023-03-13T01:44:00,2.7,南,7.3,南南東,13.2,90.2,4,9.5,10,11
106,2023-03-13T01:45:00,2.4,南,6.3,南南東,13.2,91,4.5,10.5,11,12
107,2023-03-13T01:46:00,2.2,南南西,6.1,北北西,13.1,92,4.5,10.5,11.5,12.5
108,2023-03-13T01:47:00,2.4,南西,8.3,北北東,13.1,92.6,4,10.5,11.5,12.5
109,2023-03-13T01:48:00,2.7,西,11.1,北,12.7,92.4,4,11,12,13
110,2023-03-13T01:49:00,3.2,北西,11.1,北,12.2,90.1,4.5,12,13,14
111,2023-03-13T01:50:00,3.7,北北西,11.9,北北西,11.7,88.2,5,12.5,13.5,14.5
112,2023-03-13T01:51:00,4.5,北北西,11.9,北北西,11.4,87.2,5,12.5,13.5,14.5
113,2023-03-13T01:52:00,5.5,北北西,15.8,北,11,86.8,5,13,14,15
114,2023-03-13T01:53:00,6.3,北,15.8,北,10.8,86.6,5,13.5,14.5,15.5
115,2023-03-13T01:54:00,6.9,北,15.8,北,10.6,87.4,5.5,14.5,15.5,16.5
116,2023-03-13T01:55:00,7.9,北,15.8,北,10.4,88,5,15,16,17
117,2023-03-13T01:56:00,8.6,北,15.8,北,10.2,88.2,5.5,16,17,18
118,2023-03-13T01:57:00,9,北,15.8,北,10.1,88.8,6,16,17.5,18.5
119,2023-03-13T01:58:00,9.3,北,15.8,北,10,89.4,6.5,17,18.5,19.5
120,2023-03-13T01:59:00,9.5,北,15.8,北,10,90.3,6,17.5,19,20
121,2023-03-13T02:00:00,9.6,北,15.8,北,9.9,91,6.5,18.5,20,21
122,2023-03-13T02:01:00,9.6,北,15.8,北,9.8,91.6,7,19,20.5,21.5
123,2023-03-13T02:02:00,9.5,北,15.1,北,9.7,91.9,7,19.5,21,22
124,2023-03-13T02:03:00,9.2,北,15.1,北,9.7,92.2,7,20,21.5,22.5
125,2023-03-13T02:04:00,9.2,北,15.1,北,9.6,92.4,7,21,22.5,23.5
126,2023-03-13T02:05:00,8.9,北,15.1,北,9.5,92.6,8,22.5,24,25
127,2023-03-13T02:06:00,8.7,北,15.1,北,9.4,92.8,7.5,23,24.5,25.5
128,2023-03-13T02:07:00,8.4,北,15.1,北,9.4,93.1,7.5,23.5,25,26
129,2023-03-13T02:08:00,7.9,北,14.9,北,9.4,93.4,7,24,25.5,26.5
130,2023-03-13T02:09:00,7.4,北,14.9,北,9.4,93.9,7,24.5,26,27
131,2023-03-13T02:10:00,6.9,北,14.9,北,9.3,94.2,6,24,26,27
132,2023-03-13T02:11:00,6.4,北,14.9,北,9.3,94.4,6.5,25,27,28
133,2023-03-13T02:12:00,6.1,北,12.9,北北西,9.2,94.3,6.5,25.5,27.5,28.5
134,2023-03-13T02:13:00,6.1,北,12.9,北北西,9.1,94.3,7,26.5,28.5,29.5
135,2023-03-13T02:14:00,6.1,北,12.9,北北西,9.1,94.3,7,27,29.5,30.5
136,2023-03-13T02:15:00,6,北北西,10.5,北,9.1,94.2,6,27.5,30,31
137,2023-03-13T02:16:00,5.6,北北西,9.9,北,9.2,94.4,5.5,27.5,30,31
138,2023-03-13T02:17:00,5.6,北北西,9.9,北,9.2,94.6,5.5,28,30.5,31.5
139,2023-03-13T02:18:00,5.8,北北西,10.1,北北西,9.2,94.2,5,28,30.5,31.5
140,2023-03-13T02:19:00,5.9,北北西,10.1,北北西,9.2,93.8,5.5,28,31.5,32.5
141,2023-03-13T02:20:00,5.9,北北西,10.1,北北西,9.2,93.4,5.5,28,31.5,32.5
142,2023-03-13T02:21:00,6.1,北北西,10.1,北北西,9.2,93.2,5,28,32,33
143,2023-03-13T02:22:00,6.1,北北西,10.1,北北西,9.2,93,5,28.5,32.5,33.5
144,2023-03-13T02:23:00,5.8,北北西,10.1,北北西,9.2,92.7,4,28.5,32.5,33.5
145,2023-03-13T02:24:00,5.3,北北西,10.1,北北西,9.2,92.3,3.5,29,33,34
146,2023-03-13T02:25:00,5.1,北北西,10.1,北北西,9.2,92,3,29,33,34
147,2023-03-13T02:26:00,5.1,北北西,10.1,北北西,9.1,91.8,3,29,33,34
148,2023-03-13T02:27:00,4.8,北,10.1,北北西,9.1,91.8,2.5,28.5,33,34
149,2023-03-13T02:28:00,4.4,北,9,北北西,9.2,91.8,2.5,28.5,33,34
150,2023-03-13T02:29:00,4.2,北,9,北北西,9.2,91.5,2,29,33.5,34.5
151,2023-03-13T02:30:00,4.2,北,8.8,北北西,9.1,91.2,2,28.5,33.5,34.5
152,2023-03-13T02:31:00,4,北,8.6,北,9.2,91.1,1.5,28.5,33.5,34.5
153,2023-03-13T02:32:00,3.8,北,8.3,北,9.2,91.1,1,28,33.5,34.5
154,2023-03-13T02:33:00,3.9,北,8.3,北,9.2,90.5,1,28,33.5,34.5
155,2023-03-13T02:34:00,4.1,北,8.3,北,9.1,90.1,0.5,27.5,33.5,34.5
156,2023-03-13T02:35:00,4.2,北,8.3,北,9.1,90,0.5,27,33.5,34.5
157,2023-03-13T02:36:00,4.4,北,8.6,北,9,90.2,1,27,34,35
158,2023-03-13T02:37:00,4.5,北,8.6,北,9.1,90.3,1,26.5,34,35
159,2023-03-13T02:38:00,4.7,北,8.6,北,9.1,90.2,1,26,34,35
160,2023-03-13T02:39:00,4.8,北,8.6,北,9.1,89.9,0.5,25.5,34,35
161,2023-03-13T02:40:00,4.8,北,8.6,北,9.1,89.5,1,26,34.5,35.5
162,2023-03-13T02:41:00,4.9,北,8.6,北,9,89.2,1,26,34.5,35.5
163,2023-03-13T02:42:00,4.9,北,9.4,北北西,9,89,1,25.5,34.5,35.5
164,2023-03-13T02:43:00,4.8,北,9.4,北北西,9,88.7,1,25,34.5,35.5
165,2023-03-13T02:44:00,4.7,北,9.4,北北西,9,88.3,1,24.5,34.5,35.5
166,2023-03-13T02:45:00,4.6,北,9.4,北北西,8.9,88.4,1,23.5,34.5,35.5
167,2023-03-13T02:46:00,4.5,北,9.4,北北西,8.8,88.6,1,23.5,35,36
168,2023-03-13T02:47:00,4.6,北,9.4,北北西,8.8,89,1,23.5,35,36
169,2023-03-13T02:48:00,4.7,北,9.4,北北西,8.9,89.3,1,23,35,36
170,2023-03-13T02:49:00,4.7,北,9.4,北北西,8.9,89.4,1,22,35,36
171,2023-03-13T02:50:00,4.6,北,9.4,北北西,8.8,89.2,1,22,35.5,36.5
172,2023-03-13T02:51:00,4.6,北,9.4,北北西,8.8,89.2,1,22,35.5,36.5
173,2023-03-13T02:52:00,4.3,北,8.6,北,8.8,89.4,1,21.5,35.5,36.5
174,2023-03-13T02:53:00,4.4,北,8.6,北,8.8,89.4,1.5,21.5,36,37
175,2023-03-13T02:54:00,4.3,北北西,8.6,北,8.8,89.5,1.5,20.5,36,37
176,2023-03-13T02:55:00,4.2,北北西,8.6,北,8.8,89.5,2,20.5,36.5,37.5
177,2023-03-13T02:56:00,3.9,北北西,8.6,北,8.8,89.6,1.5,19.5,36.5,37.5
178,2023-03-13T02:57:00,3.6,北北西,7.3,北,8.8,89.6,1.5,19,36.5,37.5
179,2023-03-13T02:58:00,3.4,北北西,7.2,北北西,8.8,89.6,1.5,18,36.5,37.5
180,2023-03-13T02:59:00,3.1,北北西,6.3,北北西,8.8,89.5,1.5,17.5,36.5,37.5
181,2023-03-13T03:00:00,2.9,北北西,5.9,北北西,8.8,89.3,1,16.5,36.5,37.5
182,2023-03-13T03:01:00,2.6,北北西,5,北北西,8.8,89.2,1,16,36.5,37.5
183,2023-03-13T03:02:00,2.6,北北西,5,北北西,8.7,89.4,1,15.5,36.5,37.5
184,2023-03-13T03:03:00,2.6,北北西,5.8,北,8.8,89.8,1,15.5,37,38
185,2023-03-13T03:04:00,2.7,北北西,5.8,北,8.8,89.9,1,14.5,37,38
186,2023-03-13T03:05:00,2.8,北,5.8,北,8.9,90.1,0.5,13,37,38
187,2023-03-13T03:06:00,2.9,北,6.9,北,8.8,89.6,0.5,12.5,37,38
188,2023-03-13T03:07:00,3.1,北,7.1,北,8.8,89.3,0.5,12,37,38
189,2023-03-13T03:08:00,3.2,北,7.1,北,8.8,89.4,0.5,11.5,37,38
190,2023-03-13T03:09:00,3.4,北,7.1,北,8.7,89.5,0.5,11,37,38
191,2023-03-13T03:10:00,3.6,北,7.1,北,8.6,89.5,0.5,11,37,38
192,2023-03-13T03:11:00,3.8,北,7.1,北,8.5,89.8,0.5,10,37,38
193,2023-03-13T03:12:00,3.8,北,7.1,北,8.5,90.3,0.5,9.5,37,38
194,2023-03-13T03:13:00,3.8,北,7.1,北,8.5,90.8,0,8.5,37,38
195,2023-03-13T03:14:00,3.6,北,7.1,北,8.6,91.2,0,7.5,37,38
196,2023-03-13T03:15:00,3.5,北,7.1,北,8.6,91.5,0,7,37,38
197,2023-03-13T03:16:00,3.3,北,7.1,北,8.6,91.6,0,7,37,38
198,2023-03-13T03:17:00,3,北,7.1,北,8.6,91.4,0,6.5,37,38
199,2023-03-13T03:18:00,2.7,北,6.4,北北西,8.5,91.3,0,6.5,37,38
200,2023-03-13T03:19:00,2.4,北北西,6.4,北北西,8.6,91.4,0,5.5,37,38
201,2023-03-13T03:20:00,2.1,北北西,6.4,北北西,8.6,91.3,0,5.5,37,38
202,2023-03-13T03:21:00,1.9,北北西,5,北北西,8.6,91.3,0,5,37,38
203,2023-03-13T03:22:00,1.6,北北西,3.9,北北西,8.7,91.3,0,4.5,37,38
204,2023-03-13T03:23:00,1.5,北,3.9,北北西,8.6,91.4,0,4.5,37,38
205,2023-03-13T03:24:00,1.4,北,3.9,北北西,8.5,91,0,4,37,38
206,2023-03-13T03:25:00,1.4,北,3.5,北北西,8.5,91,0,4,37,38
207,2023-03-13T03:26:00,1.3,北北東,3.5,北北西,8.5,91.1,0.5,4.5,37.5,38.5
208,2023-03-13T03:27:00,1.2,北北東,3.2,北北西,8.6,91.3,0.5,4.5,37.5,38.5
209,2023-03-13T03:28:00,1.2,北東,2.3,東,8.6,91.5,0.5,4.5,37.5,38.5
210,2023-03-13T03:29:00,1.2,北東,2.3,東,8.6,91.1,0.5,4,37.5,38.5
211,2023-03-13T03:30:00,1.2,東北東,2.3,東,8.6,91,0.5,4,37.5,38.5
212,2023-03-13T03:31:00,1.2,東北東,2.3,東,8.6,90.9,0.5,4,37.5,38.5
213,2023-03-13T03:32:00,1.3,東北東,2.3,東,8.6,90.8,0.5,4,37.5,38.5
214,2023-03-13T03:33:00,1.3,東北東,2.3,東,8.6,90.7,0.5,4,37.5,38.5
215,2023-03-13T03:34:00,1.4,東北東,2.8,北東,8.6,90.6,0.5,4,37.5,38.5
216,2023-03-13T03:35:00,1.4,東北東,3,北東,8.5,90.4,0.5,4,37.5,38.5
217,2023-03-13T03:36:00,1.4,東北東,3,北東,8.5,90.3,0,3.5,37.5,38.5
218,2023-03-13T03:37:00,1.3,東北東,3,北東,8.5,90.4,0,3.5,37.5,38.5
219,2023-03-13T03:38:00,1.2,東北東,3,北東,8.4,90.5,0,3.5,37.5,38.5
220,2023-03-13T03:39:00,1.2,東北東,3,北東,8.5,90.9,0,3.5,37.5,38.5
221,2023-03-13T03:40:00,1.2,東北東,3,北東,8.4,90.8,0,3,37.5,38.5
222,2023-03-13T03:41:00,1.1,東北東,3,北東,8.5,91.2,0,3,37.5,38.5
223,2023-03-13T03:42:00,1,東北東,3,北東,8.4,91.3,0,3,37.5,38.5
224,2023-03-13T03:43:00,0.9,東北東,3,北東,8.5,91.7,0,3,37.5,38.5
225,2023-03-13T03:44:00,0.7,東,3,北東,8.5,91.9,0,3,37.5,38.5
226,2023-03-13T03:45:00,0.6,東,1.5,東南東,8.5,91.9,0,3,37.5,38.5
227,2023-03-13T03:46:00,0.7,東,2.5,南南東,8.4,92,0,2.5,37.5,38.5
228,2023-03-13T03:47:00,0.9,東南東,2.7,南南東,8.4,92.2,0,2.5,37.5,38.5
229,2023-03-13T03:48:00,0.9,東南東,2.7,南南東,8.4,92.4,0,2.5,37.5,38.5
230,2023-03-13T03:49:00,0.8,東南東,2.7,南南東,8.5,92.9,0,2.5,37.5,38.5
231,2023-03-13T03:50:00,0.8,南東,2.7,南南東,8.6,93.6,0,2,37.5,38.5
232,2023-03-13T03:51:00,0.8,南東,2.7,南南東,8.5,93.7,0,2,37.5,38.5
233,2023-03-13T03:52:00,0.9,南東,2.7,南南東,8.4,93.4,0,2,37.5,38.5
234,2023-03-13T03:53:00,1,南東,2.7,南南東,8.3,93.4,0,1.5,37.5,38.5
235,2023-03-13T03:54:00,1.1,南東,2.7,南南東,8.3,93.6,0,1.5,37.5,38.5
236,2023-03-13T03:55:00,1.1,南東,2.7,南南東,8.3,93.9,0,1,37.5,38.5
237,2023-03-13T03:56:00,1,南東,2.7,南南東,8.3,94.2,0,1,37.5,38.5
238,2023-03-13T03:57:00,1,南東,2.4,東南東,8.3,94.3,0,1,37.5,38.5
239,2023-03-13T03:58:00,0.9,南東,2.4,東南東,8.3,94.7,0,1,37.5,38.5
240,2023-03-13T03:59:00,0.9,南南東,2.4,東南東,8.3,95,0,1,37.5,38.5
241,2023-03-13T04:00:00,0.9,南南東,2.4,東南東,8.3,95,0,1,37.5,38.5
242,2023-03-13T04:01:00,0.8,南南東,2.4,東南東,8.3,95.1,0,1,37.5,38.5
243,2023-03-13T04:02:00,0.7,南東,2.4,東南東,8.4,95.3,0,1,37.5,38.5
244,2023-03-13T04:03:00,0.5,南南東,2,南南東,8.2,95.4,0,0.5,37.5,38.5
245,2023-03-13T04:04:00,0.5,南南東,2,南南東,8.2,95.2,0,0.5,37.5,38.5
246,2023-03-13T04:05:00,0.4,南南東,1.5,東南東,8.3,95.4,0,0.5,37.5,38.5
247,2023-03-13T04:06:00,0.3,南南東,1.4,南南東,8.3,95.6,0,0.5,37.5,38.5
248,2023-03-13T04:07:00,0.3,南南東,1.6,南東,8.2,95.5,0,0.5,37.5,38.5
249,2023-03-13T04:08:00,0.4,南東,2.2,南東,8.2,95.5,0,0.5,37.5,38.5
250,2023-03-13T04:09:00,0.7,南東,3.6,東南東,8.2,95.5,0,0.5,37.5,38.5
251,2023-03-13T04:10:00,0.9,南東,3.7,東南東,8.2,95.6,0,0.5,37.5,38.5
252,2023-03-13T04:11:00,1.1,南東,3.7,東南東,8.2,95.7,0.5,1,38,39
253,2023-03-13T04:12:00,1.2,南東,3.7,東南東,8.2,95.6,0.5,1,38,39
254,2023-03-13T04:13:00,1.4,南東,3.7,東南東,8.2,95.7,0.5,1,38,39
255,2023-03-13T04:14:00,1.7,南東,4.5,南東,8.2,95.7,0.5,1,38,39
256,2023-03-13T04:15:00,1.9,南東,4.5,南東,8.2,95.7,0.5,1,38,39
257,2023-03-13T04:16:00,2.2,南東,4.5,南東,8.3,95.8,0.5,1,38,39
258,2023-03-13T04:17:00,2.4,南東,4.5,南東,8.3,95.8,0.5,1,38,39
259,2023-03-13T04:18:00,2.6,南南東,4.5,南東,8.2,95.8,0.5,1,38,39
260,2023-03-13T04:19:00,2.6,南南東,4.5,南東,8.2,95.8,0.5,1,38,39
261,2023-03-13T04:20:00,2.7,南南東,5.9,南南東,8.3,95.8,0.5,1,38,39
262,2023-03-13T04:21:00,2.8,南南東,5.9,南南東,8.2,95.8,0,1,38,39
263,2023-03-13T04:22:00,3,南南東,5.9,南南東,8.3,95.9,0,1,38,39
264,2023-03-13T04:23:00,3.1,南南東,5.9,南南東,8.3,95.9,0,1,38,39
265,2023-03-13T04:24:00,3.1,南南東,5.9,南南東,8.3,95.9,0,1,38,39
266,2023-03-13T04:25:00,3.2,南南東,5.9,南南東,8.3,95.9,0,1,38,39
267,2023-03-13T04:26:00,3.2,南南東,5.9,南南東,8.3,95.9,0,0.5,38,39
268,2023-03-13T04:27:00,3.2,南南東,5.9,南南東,8.3,95.9,0,0.5,38,39
269,2023-03-13T04:28:00,3.2,南南東,5.9,南南東,8.3,95.9,0,0.5,38,39
270,2023-03-13T04:29:00,3.3,南南東,5.9,南南東,8.3,95.9,0,0.5,38,39
271,2023-03-13T04:30:00,3.2,南南東,5.8,南東,8.3,95.9,0,0.5,38,39
272,2023-03-13T04:31:00,3.1,南南東,5.8,南東,8.4,95.9,0,0.5,38,39
273,2023-03-13T04:32:00,3.1,南南東,5.8,南東,8.4,95.9,0,0.5,38,39
274,2023-03-13T04:33:00,3,南南東,5.8,南東,8.4,95.9,0,0.5,38,39
275,2023-03-13T04:34:00,2.9,南南東,5.8,南東,8.5,95.9,0,0.5,38,39
276,2023-03-13T04:35:00,2.8,南南東,4.8,南南東,8.5,96,0,0.5,38,39
277,2023-03-13T04:36:00,2.7,南南東,4.8,南南東,8.5,95.9,0.5,1,38.5,39.5
278,2023-03-13T04:37:00,2.6,南南東,4.8,南南東,8.5,95.8,0.5,1,38.5,39.5
279,2023-03-13T04:38:00,2.6,南南東,4.8,南南東,8.6,95.9,0.5,1,38.5,39.5
280,2023-03-13T04:39:00,2.5,南南東,4.3,南,8.7,96,0.5,1,38.5,39.5
281,2023-03-13T04:40:00,2.4,南南東,4.3,南,8.8,96,0.5,1,38.5,39.5
282,2023-03-13T04:41:00,2.5,南南東,5.4,南,8.8,95.8,0.5,1,38.5,39.5
283,2023-03-13T04:42:00,2.5,南南東,5.4,南,8.9,95.7,0.5,1,38.5,39.5
284,2023-03-13T04:43:00,2.3,南,5.4,南,8.9,95.4,0.5,1,38.5,39.5
285,2023-03-13T04:44:00,2.2,南,5.4,南,8.9,94.9,0.5,1,38.5,39.5
286,2023-03-13T04:45:00,2.2,南,5.4,南,8.9,94.2,0.5,1,38.5,39.5
287,2023-03-13T04:46:00,2.1,南,5.4,南,9,93.8,0,1,38.5,39.5
288,2023-03-13T04:47:00,1.9,南,5.4,南,8.9,93.1,0,1,38.5,39.5
289,2023-03-13T04:48:00,1.7,南,5.4,南,9,92.7,0,1,38.5,39.5
290,2023-03-13T04:49:00,1.6,南,5.4,南,9,92.4,0,1,38.5,39.5
291,2023-03-13T04:50:00,1.6,南,5.4,南,9,92,0,1,38.5,39.5
292,2023-03-13T04:51:00,1.4,南,3.5,南南東,9,91.5,0,1,38.5,39.5
293,2023-03-13T04:52:00,1.3,南,3.5,南南東,9,91.3,0,1,38.5,39.5
294,2023-03-13T04:53:00,1.3,南,3.5,南南東,8.8,90.9,0,1,38.5,39.5
295,2023-03-13T04:54:00,1.4,南南西,4.3,北,8.6,90.7,0,1,38.5,39.5
296,2023-03-13T04:55:00,1.6,南西,4.3,北,8.6,91.1,0,1,38.5,39.5
297,2023-03-13T04:56:00,1.7,西北西,4.3,北,8.5,91.7,0,1,38.5,39.5
298,2023-03-13T04:57:00,1.9,北,4.3,北,8.5,92.4,0,1,38.5,39.5
299,2023-03-13T04:58:00,2.1,北,4.7,北北東,8.5,93.1,0,1,38.5,39.5
300,2023-03-13T04:59:00,2.2,北,4.7,北北東,8.4,93.6,0,1,38.5,39.5
301,2023-03-13T05:00:00,2.2,北,4.7,北北東,8.5,94.3,0,1,38.5,39.5
302,2023-03-13T05:01:00,2.2,北,4.7,北北東,8.5,94.8,0,1,38.5,39.5
303,2023-03-13T05:02:00,2.3,北北東,4.7,北北東,8.5,95.1,0,1,38.5,39.5
304,2023-03-13T05:03:00,2.4,北北東,4.7,北北東,8.7,95.3,0,1,38.5,39.5
305,2023-03-13T05:04:00,2.4,北北東,4.7,北北東,8.7,95.5,0,1,38.5,39.5
306,2023-03-13T05:05:00,2.3,北北東,4.7,北北東,8.8,95.5,0,1,38.5,39.5
307,2023-03-13T05:06:00,2.1,北東,4.7,北北東,8.8,95.4,0,1,38.5,39.5
308,2023-03-13T05:07:00,1.9,北東,4.7,北北東,8.8,95.3,0,1,38.5,39.5
309,2023-03-13T05:08:00,1.6,北東,3.9,北北東,8.8,95.2,0,1,38.5,39.5
310,2023-03-13T05:09:00,1.4,東北東,3.1,北東,8.8,95.2,0,1,38.5,39.5
311,2023-03-13T05:10:00,1.2,東北東,2.9,北東,8.7,95.1,0,1,38.5,39.5
312,2023-03-13T05:11:00,1.1,東北東,2.9,北東,8.7,95.1,0,0.5,38.5,39.5
313,2023-03-13T05:12:00,1,東,2.9,北東,8.6,95.1,0,0.5,38.5,39.5
314,2023-03-13T05:13:00,0.8,東,2.9,北東,8.5,94.8,0,0.5,38.5,39.5
315,2023-03-13T05:14:00,0.6,東南東,2.9,北東,8.5,94.8,0,0.5,38.5,39.5
316,2023-03-13T05:15:00,0.4,南東,2.3,東北東,8.5,95,0,0.5,38.5,39.5
317,2023-03-13T05:16:00,0.3,南南東,1.2,北東,8.5,95.2,0,0.5,38.5,39.5
318,2023-03-13T05:17:00,0.3,南,1.2,北東,8.5,95.3,0,0.5,38.5,39.5
319,2023-03-13T05:18:00,0.3,南,1.2,北東,8.5,95.4,0,0.5,38.5,39.5
320,2023-03-13T05:19:00,0.3,南,1.2,北東,8.6,95.6,0,0.5,38.5,39.5
321,2023-03-13T05:20:00,0.3,南,1,西南西,8.5,95.7,0,0.5,38.5,39.5
322,2023-03-13T05:21:00,0.4,南南西,1.3,西南西,8.5,95.5,0,0.5,38.5,39.5
323,2023-03-13T05:22:00,0.4,南西,1.3,西南西,8.4,95.6,0,0.5,38.5,39.5
324,2023-03-13T05:23:00,0.5,南西,1.5,南西,8.4,95.6,0,0.5,38.5,39.5
325,2023-03-13T05:24:00,0.6,南西,1.5,南西,8.4,95.7,0,0.5,38.5,39.5
326,2023-03-13T05:25:00,0.7,南西,1.5,南西,8.4,95.8,0,0.5,38.5,39.5
327,2023-03-13T05:26:00,0.8,南西,1.7,西南西,8.4,95.9,0,0.5,38.5,39.5
328,2023-03-13T05:27:00,0.9,南西,1.7,西南西,8.5,95.9,0,0.5,38.5,39.5
329,2023-03-13T05:28:00,0.9,南西,1.7,西南西,8.5,96,0,0.5,38.5,39.5
330,2023-03-13T05:29:00,0.9,南西,1.7,西南西,8.5,96,0,0.5,38.5,39.5
331,2023-03-13T05:30:00,0.9,南西,1.7,西南西,8.5,96,0,0.5,38.5,39.5
332,2023-03-13T05:31:00,0.8,南西,1.7,西南西,8.5,96.1,0,0.5,38.5,39.5
333,2023-03-13T05:32:00,0.8,南西,1.7,西南西,8.7,96.3,0,0.5,38.5,39.5
334,2023-03-13T05:33:00,0.7,南南西,1.7,西南西,8.7,96.3,0,0.5,38.5,39.5
335,2023-03-13T05:34:00,0.7,南,1.7,西南西,8.6,96.2,0,0.5,38.5,39.5
336,2023-03-13T05:35:00,0.7,南南東,1.7,西南西,8.5,96,0,0.5,38.5,39.5
337,2023-03-13T05:36:00,0.6,東南東,1.3,北東,8.6,96,0,0,38.5,39.5
338,2023-03-13T05:37:00,0.6,東,1.5,北東,8.6,96.1,0,0,38.5,39.5
339,2023-03-13T05:38:00,0.6,東北東,1.5,北東,8.7,96.1,0,0,38.5,39.5
340,2023-03-13T05:39:00,0.6,東北東,1.5,北東,8.7,96.2,0,0,38.5,39.5
341,2023-03-13T05:40:00,0.6,北東,1.5,北東,8.7,96.3,0,0,38.5,39.5
342,2023-03-13T05:41:00,0.7,北東,1.5,北東,8.7,96.2,0,0,38.5,39.5
343,2023-03-13T05:42:00,0.8,北東,1.8,東北東,8.7,96,0,0,38.5,39.5
344,2023-03-13T05:43:00,0.8,北東,1.8,東北東,8.6,96,0,0,38.5,39.5
345,2023-03-13T05:44:00,0.8,北東,1.8,東北東,8.6,95.9,0,0,38.5,39.5
346,2023-03-13T05:45:00,0.9,北東,2.3,東北東,8.6,96,0,0,38.5,39.5
347,2023-03-13T05:46:00,1,北東,2.3,東北東,8.6,95.9,0,0,38.5,39.5
348,2023-03-13T05:47:00,1.1,北東,2.3,東北東,8.6,95.9,0,0,38.5,39.5
349,2023-03-13T05:48:00,1.2,東北東,2.4,東北東,8.5,95.9,0,0,38.5,39.5
350,2023-03-13T05:49:00,1.2,東北東,2.4,東北東,8.6,95.9,0,0,38.5,39.5
351,2023-03-13T05:50:00,1.3,東北東,2.4,東北東,8.7,96.1,0,0,38.5,39.5
352,2023-03-13T05:51:00,1.3,東北東,2.4,東北東,8.6,96.1,0,0,38.5,39.5
353,2023-03-13T05:52:00,1.2,東北東,2.4,東北東,8.7,96.1,0,0,38.5,39.5
354,2023-03-13T05:53:00,1.1,東,2.4,東北東,8.7,96.1,0,0,38.5,39.5
355,2023-03-13T05:54:00,1,東,2.4,東北東,8.8,96.2,0,0,38.5,39.5
356,2023-03-13T05:55:00,0.9,東,2.4,東北東,8.7,96.1,0,0,38.5,39.5
357,2023-03-13T05:56:00,0.9,東,2.4,東北東,8.7,96,0,0,38.5,39.5
358,2023-03-13T05:57:00,0.8,東,2.4,東北東,8.7,96,0,0,38.5,39.5
359,2023-03-13T05:58:00,0.7,東,2.1,東北東,8.6,95.9,0,0,38.5,39.5
360,2023-03-13T05:59:00,0.7,東南東,1.6,南南西,8.6,95.8,0,0,38.5,39.5
361,2023-03-13T06:00:00,0.8,南東,1.8,南南西,8.5,95.7,0,0,38.5,39.5
362,2023-03-13T06:01:00,0.9,南東,2,南,8.5,95.6,0,0,38.5,39.5
363,2023-03-13T06:02:00,1,南南東,2,南,8.4,95.6,0,0,38.5,39.5
364,2023-03-13T06:03:00,1.1,南南東,2,南,8.4,95.7,0,0,38.5,39.5
365,2023-03-13T06:04:00,1.1,南,2,南,8.4,95.8,0,0,38.5,39.5
366,2023-03-13T06:05:00,1.2,南,2,南,8.4,95.9,0,0,38.5,39.5
367,2023-03-13T06:06:00,1.2,南,2,南,8.4,96,0,0,38.5,39.5
368,2023-03-13T06:07:00,1.1,南,2,南,8.4,96,0,0,38.5,39.5
369,2023-03-13T06:08:00,1,南南西,2,南,8.4,96.1,0,0,38.5,39.5
370,2023-03-13T06:09:00,0.9,南南西,2,南,8.4,96.1,0,0,38.5,39.5
371,2023-03-13T06:10:00,0.8,南南西,2,南,8.5,96.2,0,0,38.5,39.5
372,2023-03-13T06:11:00,0.7,南西,1.9,南南西,8.5,96.2,0,0,38.5,39.5
373,2023-03-13T06:12:00,0.5,西南西,1.6,南,8.5,96.2,0,0,38.5,39.5
374,2023-03-13T06:13:00,0.5,西南西,1.5,南,8.5,96.3,0,0,38.5,39.5
375,2023-03-13T06:14:00,0.4,西南西,1.3,南,8.5,96.4,0,0,38.5,39.5
376,2023-03-13T06:15:00,0.3,西,1,西南西,8.5,96.3,0,0,38.5,39.5
377,2023-03-13T06:16:00,0.3,西,1,西南西,8.5,96.4,0,0,38.5,39.5
378,2023-03-13T06:17:00,0.3,西北西,1,西南西,8.6,96.4,0,0,38.5,39.5
379,2023-03-13T06:18:00,0.3,西北西,1,西南西,8.7,96.5,0,0,38.5,39.5
380,2023-03-13T06:19:00,0.3,北西,1,西南西,8.6,96.5,0,0,38.5,39.5
381,2023-03-13T06:20:00,0.3,北西,1,西南西,8.7,96.5,0,0,38.5,39.5
382,2023-03-13T06:21:00,0.4,北北西,1,西南西,8.7,96.5,0,0,38.5,39.5
383,2023-03-13T06:22:00,0.4,北北西,1.4,北,8.7,96.4,0,0,38.5,39.5
384,2023-03-13T06:23:00,0.5,北北西,1.4,北,8.7,96.3,0,0,38.5,39.5
385,2023-03-13T06:24:00,0.5,北,1.4,北,8.8,96.4,0,0,38.5,39.5
386,2023-03-13T06:25:00,0.6,北,1.4,北,8.7,96.3,0,0,38.5,39.5
387,2023-03-13T06:26:00,0.6,北,1.4,北,8.8,96.3,0,0,38.5,39.5
388,2023-03-13T06:27:00,0.7,北,1.4,北,8.9,96.3,0,0,38.5,39.5
389,2023-03-13T06:28:00,0.7,北,1.5,北東,8.7,96.1,0,0,38.5,39.5
390,2023-03-13T06:29:00,0.8,北北東,1.8,北東,8.7,95.9,0,0,38.5,39.5
391,2023-03-13T06:30:00,0.9,北北東,2.3,北北東,8.7,95.9,0,0,38.5,39.5